Fuel Prices

100LL: $3.84 (self-service)
100LL: $4.50 (full-service)
Jet-A: $3.43 (full-service)

Updated: November 29, 2016

Pilot Training

We offer pilot training from the basic private pilot course through ATP. We also provide aircraft rentals to qualified pilots looking for a place to fly.

Visit our school

Reservations

Are you planning a stop in Merritt Island? Need a tie-down or hangar spot? Let us know ahead of time and we'll be awaiting your arrival.

Plan Your Stop

Located at the Merritt Island Airport (KCOI), Space Coast Aviation is the premier FBO for all of your needs. We’re the closest FBO to Cocoa Beach, Kennedy Space Center and Port Canaveral.

Swing by and enjoy our competitive fuel prices, refreshments, on-site maintenance, car rental services and much more.

Airport Information

Identifier: KCOI
Non-Towered
Runway: 11 / 29
3601 X 75 ft
Surface: Asphalt

CTAF/UNICOM: 122.975
AWOS-3: 119.025
ORL APP: 132.65

Area Weather

Patrick AFB (KCOF) METAR:

KCOF 090658Z AUTO 35013KT 10SM CLR 18/13 A3018 RMK AO2 SLP224 T01840129 $

Titusville (KTIX) METAR:

KTIX 082347Z 02007KT 7SM SCT120 18/17 A3015

Melbourne (KMLB) METAR:

KMLB 090653Z AUTO 34010G17KT 10SM BKN090 18/13 A3018 RMK AO2 SLP219 T01780128

Hours of Operation

Mon: 7:00am - 8:00pm EST
Tue: 7:00am - 8:00pm EST
Wed: 7:00am - 8:00pm EST
Thu: 7:00am - 8:00pm EST
Fri: 7:00am - 8:00pm EST
Sat: 7:00am - 8:00pm EST
Sun: 7:00am - 8:00pm EST

Contact Us

Merritt Island Airport
900 Airport Road
Merritt Island, FL 32952

P: +1 (321) 453-2222